{"data":{"norad_id":68324,"intl_designator":"2026-059D","name":"STARLINK-37164","alt_names":[],"object_type":"PAYLOAD","status":"ACTIVE","operator":null,"country":"US","launch_date":"2026-03-22","launch_site_code":"AFETR","launch_vehicle":null,"mission":null,"orbit_class":"UNKNOWN","rcs_meters":null,"size_class":null,"mass_kg":null,"dimensions":null,"purposes":["comms"],"wikipedia_slug":null,"has_3d_model":false,"image_url":null,"decayed_at":null,"tle_current":{"epoch":"2026-09-20T04:57:49.649760Z","epoch_age_seconds":73729,"freshness":"FRESH","line1":"1 68324U 26059D   26263.20682465  .00024158  00000+0  72346-3 0  9991","line2":"2 68324  53.1576 162.8741 0000913  77.5050 282.6054 15.34416170 29110","mean_motion":15.3441617,"eccentricity":9.13e-5,"inclination_deg":53.1576,"raan_deg":162.8741,"arg_perigee_deg":77.505,"mean_anomaly_deg":282.6054,"bstar":0.00072346,"rev_number":2911,"period_min":93.846769093941,"perigee_km":462.03061565546,"apogee_km":463.27974430753,"semimajor_km":6840.7921799815,"source":"CELESTRAK","updated_at":"2026-09-20T09:00:43.883361Z"}}}